Time,TemperatureF,DewpointF,PressureIn,WindDirection,WindDirectionDegrees,WindSpeedMPH,WindSpeedGustMPH,Humidity,HourlyPrecipIn,Conditions,Clouds,dailyrainin,SoftwareType,DateUTC
2014-01-02 00:03:00,6.8,0.5,30.31,NNW,338,6.7,9.8,75,0.00,,,0.00,WUHU216HW,2014-01-02 06:03:00,
2014-01-02 00:14:00,6.7,0.4,30.31,NW,315,4.7,6.7,75,0.00,,,0.00,WUHU216HW,2014-01-02 06:14:00,
2014-01-02 00:19:00,6.1,-0.2,30.31,NW,315,6.5,7.8,75,0.00,,,0.00,WUHU216HW,2014-01-02 06:19:00,
2014-01-02 00:24:00,6.1,-0.2,30.31,NW,315,5.8,8.1,75,0.00,,,0.00,WUHU216HW,2014-01-02 06:24:00,
2014-01-02 00:29:00,6.1,-0.2,30.31,NW,315,5.8,8.1,75,0.00,,,0.00,WUHU216HW,2014-01-02 06:29:00,
2014-01-02 00:50:00,5.6,-0.7,30.32,NNW,338,6.0,6.0,75,0.00,,,0.00,WUHU216HW,2014-01-02 06:50:00,
2014-01-02 00:55:00,5.4,-0.9,30.32,NNW,338,6.7,7.2,75,0.00,,,0.00,WUHU216HW,2014-01-02 06:55:00,
2014-01-02 01:00:00,5.4,-0.9,30.32,NNW,338,5.4,8.5,75,0.00,,,0.00,WUHU216HW,2014-01-02 07:00:00,
2014-01-02 01:05:00,5.2,-1.1,30.32,NW,315,6.9,8.5,75,0.00,,,0.00,WUHU216HW,2014-01-02 07:05:00,
2014-01-02 01:07:00,5.2,-1.1,30.32,NNW,338,4.7,8.5,75,0.00,,,0.00,WUHU216HW,2014-01-02 07:07:00,
2014-01-02 01:12:00,4.9,-1.4,30.32,NW,315,7.8,9.2,75,0.00,,,0.00,WUHU216HW,2014-01-02 07:12:00,
2014-01-02 01:17:00,4.7,-1.6,30.32,NW,315,5.8,9.2,75,0.00,,,0.00,WUHU216HW,2014-01-02 07:17:00,
2014-01-02 01:22:00,4.7,-1.6,30.32,North,0,7.4,9.2,75,0.00,,,0.00,WUHU216HW,2014-01-02 07:22:00,
2014-01-02 01:27:00,4.3,-2.0,30.32,NW,315,8.3,11.2,75,0.00,,,0.00,WUHU216HW,2014-01-02 07:27:00,
2014-01-02 01:32:00,4.3,-2.0,30.33,NW,315,5.8,11.2,75,0.00,,,0.00,WUHU216HW,2014-01-02 07:32:00,
2014-01-02 01:37:00,4.1,-2.2,30.33,North,0,6.9,10.5,75,0.00,,,0.00,WUHU216HW,2014-01-02 07:37:00,
2014-01-02 01:45:00,4.1,-2.2,30.32,NW,315,6.9,10.5,75,0.00,,,0.00,WUHU216HW,2014-01-02 07:45:00,
2014-01-02 01:50:00,4.0,-2.5,30.33,NW,315,9.2,9.2,74,0.00,,,0.00,WUHU216HW,2014-01-02 07:50:00,
2014-01-02 01:55:00,4.0,-2.5,30.33,NW,315,9.2,9.2,74,0.00,,,0.00,WUHU216HW,2014-01-02 07:55:00,
2014-01-02 02:00:00,3.6,-2.9,30.33,NNW,338,6.9,6.9,74,0.00,,,0.00,WUHU216HW,2014-01-02 08:00:00,
2014-01-02 02:05:00,3.6,-2.9,30.33,NNW,338,6.9,6.9,74,0.00,,,0.00,WUHU216HW,2014-01-02 08:05:00,
2014-01-02 02:29:00,2.5,-4.0,30.35,NNW,338,7.6,7.6,74,0.00,,,0.00,WUHU216HW,2014-01-02 08:29:00,
2014-01-02 02:34:00,2.5,-4.0,30.35,NNW,338,7.6,7.6,74,0.00,,,0.00,WUHU216HW,2014-01-02 08:34:00,
2014-01-02 03:02:00,1.8,-4.7,30.35,NW,315,5.4,5.4,74,0.00,,,0.00,WUHU216HW,2014-01-02 09:02:00,
2014-01-02 03:07:00,1.8,-4.7,30.35,NW,315,5.4,5.4,74,0.00,,,0.00,WUHU216HW,2014-01-02 09:07:00,
2014-01-02 03:30:00,1.1,-5.4,30.35,WNW,293,2.5,2.5,74,0.00,,,0.00,WUHU216HW,2014-01-02 09:30:00,
2014-01-02 03:35:00,1.1,-5.4,30.35,WNW,293,2.5,2.5,74,0.00,,,0.00,WUHU216HW,2014-01-02 09:35:00,
2014-01-02 04:30:00,0.0,-5.8,30.36,NNW,338,5.1,5.1,76,0.00,,,0.00,WUHU216HW,2014-01-02 10:30:00,
2014-01-02 04:35:00,0.0,-5.8,30.36,NNW,338,5.1,5.1,76,0.00,,,0.00,WUHU216HW,2014-01-02 10:35:00,
2014-01-02 05:00:00,-0.4,-6.2,30.36,WNW,293,2.5,2.5,76,0.00,,,0.00,WUHU216HW,2014-01-02 11:00:00,
2014-01-02 05:05:00,-0.4,-6.2,30.36,WNW,293,2.5,2.5,76,0.00,,,0.00,WUHU216HW,2014-01-02 11:05:00,
2014-01-02 05:30:00,-0.9,-7.0,30.36,NNW,338,2.2,2.2,75,0.00,,,0.00,WUHU216HW,2014-01-02 11:30:00,
2014-01-02 05:35:00,-0.9,-7.0,30.36,NNW,338,2.2,2.2,75,0.00,,,0.00,WUHU216HW,2014-01-02 11:35:00,
2014-01-02 05:59:00,-1.8,-7.8,30.37,WNW,293,4.0,4.0,75,0.00,,,0.00,WUHU216HW,2014-01-02 11:59:00,
2014-01-02 06:04:00,-1.8,-7.8,30.37,WNW,293,4.0,4.0,75,0.00,,,0.00,WUHU216HW,2014-01-02 12:04:00,
2014-01-02 06:29:00,-1.8,-7.5,30.37,WNW,293,2.2,2.2,76,0.00,,,0.00,WUHU216HW,2014-01-02 12:29:00,
2014-01-02 06:35:00,-1.8,-7.5,30.37,WNW,293,2.2,2.2,76,0.00,,,0.00,WUHU216HW,2014-01-02 12:35:00,
2014-01-02 06:59:00,-1.8,-7.5,30.37,NW,315,3.4,3.4,76,0.00,,,0.00,WUHU216HW,2014-01-02 12:59:00,
2014-01-02 07:04:00,-1.8,-7.5,30.37,NW,315,3.4,3.4,76,0.00,,,0.00,WUHU216HW,2014-01-02 13:04:00,
2014-01-02 07:31:00,-0.4,-5.9,30.38,WNW,293,5.4,5.4,77,0.00,,,0.00,WUHU216HW,2014-01-02 13:31:00,
2014-01-02 07:36:00,-0.4,-5.9,30.38,WNW,293,5.4,5.4,77,0.00,,,0.00,WUHU216HW,2014-01-02 13:36:00,
2014-01-02 08:00:00,-1.1,-7.2,30.39,NW,315,4.9,4.9,75,0.00,,,0.00,WUHU216HW,2014-01-02 14:00:00,
2014-01-02 08:05:00,-1.1,-7.2,30.39,NW,315,4.9,4.9,75,0.00,,,0.00,WUHU216HW,2014-01-02 14:05:00,
2014-01-02 08:30:00,1.1,-4.9,30.39,North,0,2.7,2.7,76,0.00,,,0.00,WUHU216HW,2014-01-02 14:30:00,
2014-01-02 08:35:00,1.1,-4.9,30.39,North,0,2.7,2.7,76,0.00,,,0.00,WUHU216HW,2014-01-02 14:35:00,
2014-01-02 08:59:00,3.2,-3.2,30.41,NW,315,4.0,4.0,74,0.00,,,0.00,WUHU216HW,2014-01-02 14:59:00,
2014-01-02 09:04:00,3.2,-3.2,30.41,NW,315,4.0,4.0,74,0.00,,,0.00,WUHU216HW,2014-01-02 15:04:00,
2014-01-02 09:29:00,8.1,0.0,30.42,North,0,4.0,4.0,69,0.00,,,0.00,WUHU216HW,2014-01-02 15:29:00,
2014-01-02 09:34:00,10.4,2.2,30.42,NNW,338,6.3,6.3,69,0.00,,,0.00,WUHU216HW,2014-01-02 15:34:00,
2014-01-02 09:39:00,10.8,0.9,30.43,NNW,338,4.3,6.3,64,0.00,,,0.00,WUHU216HW,2014-01-02 15:39:00,
2014-01-02 09:44:00,10.6,0.7,30.43,NW,315,4.7,6.3,64,0.00,,,0.00,WUHU216HW,2014-01-02 15:44:00,
2014-01-02 09:49:00,10.4,0.5,30.43,NNW,338,2.2,4.7,64,0.00,,,0.00,WUHU216HW,2014-01-02 15:49:00,
2014-01-02 09:54:00,10.3,-0.3,30.43,NNE,23,4.0,6.5,62,0.00,,,0.00,WUHU216HW,2014-01-02 15:54:00,
2014-01-02 09:59:00,10.3,0.4,30.43,NW,315,5.8,6.5,64,0.00,,,0.00,WUHU216HW,2014-01-02 15:59:00,
2014-01-02 10:04:00,10.1,0.3,30.43,North,0,6.0,6.0,64,0.00,,,0.00,WUHU216HW,2014-01-02 16:04:00,
2014-01-02 10:09:00,10.1,-0.4,30.43,NNW,338,3.1,6.9,62,0.00,,,0.00,WUHU216HW,2014-01-02 16:09:00,
2014-01-02 10:14:00,10.3,0.1,30.43,North,0,6.3,6.9,63,0.00,,,0.00,WUHU216HW,2014-01-02 16:14:00,
2014-01-02 10:19:00,10.4,0.3,30.44,NNW,338,4.3,6.3,63,0.00,,,0.00,WUHU216HW,2014-01-02 16:19:00,
2014-01-02 10:24:00,10.8,0.9,30.43,NNW,338,3.8,5.4,64,0.00,,,0.00,WUHU216HW,2014-01-02 16:24:00,
2014-01-02 10:29:00,11.9,1.3,30.43,NNW,338,3.4,4.9,62,0.00,,,0.00,WUHU216HW,2014-01-02 16:29:00,
2014-01-02 10:34:00,13.3,1.6,30.43,NE,45,3.4,6.3,59,0.00,,,0.00,WUHU216HW,2014-01-02 16:34:00,
2014-01-02 10:39:00,15.5,4.3,30.43,North,0,2.9,6.3,61,0.00,,,0.00,WUHU216HW,2014-01-02 16:39:00,
2014-01-02 10:44:00,17.1,4.8,30.43,NW,315,1.1,5.4,58,0.00,,,0.00,WUHU216HW,2014-01-02 16:44:00,
2014-01-02 10:49:00,17.6,4.1,30.43,WNW,293,1.3,4.3,55,0.00,,,0.00,WUHU216HW,2014-01-02 16:49:00,
2014-01-02 10:54:00,18.7,4.0,30.43,NNW,338,4.0,4.0,52,0.00,,,0.00,WUHU216HW,2014-01-02 16:54:00,
2014-01-02 10:59:00,19.8,6.1,30.43,NW,315,1.8,4.0,55,0.00,,,0.00,WUHU216HW,2014-01-02 16:59:00,
2014-01-02 11:04:00,20.7,6.6,30.44,NW,315,5.8,5.8,54,0.00,,,0.00,WUHU216HW,2014-01-02 17:04:00,
2014-01-02 11:09:00,21.4,6.9,30.44,North,0,0.0,5.8,53,0.00,,,0.00,WUHU216HW,2014-01-02 17:09:00,
2014-01-02 11:14:00,23.4,8.7,30.43,NNW,338,1.6,5.8,53,0.00,,,0.00,WUHU216HW,2014-01-02 17:14:00,
2014-01-02 11:19:00,23.8,7.4,30.44,North,0,0.0,1.6,49,0.00,,,0.00,WUHU216HW,2014-01-02 17:19:00,
2014-01-02 11:24:00,24.3,6.4,30.44,NNW,338,4.9,4.9,46,0.00,,,0.00,WUHU216HW,2014-01-02 17:24:00,
2014-01-02 11:29:00,22.9,4.2,30.44,NW,315,3.6,4.9,44,0.00,,,0.00,WUHU216HW,2014-01-02 17:29:00,
2014-01-02 11:34:00,22.0,3.2,30.44,North,0,0.0,4.9,44,0.00,,,0.00,WUHU216HW,2014-01-02 17:34:00,
2014-01-02 11:39:00,22.0,3.2,30.44,NW,315,5.8,5.8,44,0.00,,,0.00,WUHU216HW,2014-01-02 17:39:00,
2014-01-02 11:44:00,21.1,2.0,30.44,NW,315,6.9,6.9,43,0.00,,,0.00,WUHU216HW,2014-01-02 17:44:00,
2014-01-02 11:52:00,20.7,2.1,30.43,NW,315,4.0,6.9,44,0.00,,,0.00,WUHU216HW,2014-01-02 17:52:00,
2014-01-02 11:57:00,20.0,1.4,30.43,North,0,5.4,7.2,44,0.00,,,0.00,WUHU216HW,2014-01-02 17:57:00,
2014-01-02 12:02:00,20.0,1.9,30.42,NNW,338,2.5,5.4,45,0.00,,,0.00,WUHU216HW,2014-01-02 18:02:00,
2014-01-02 12:07:00,20.0,1.9,30.42,NNW,338,2.5,2.5,45,0.00,,,0.00,WUHU216HW,2014-01-02 18:07:00,
2014-01-02 12:29:00,20.3,2.3,30.43,WNW,293,2.9,2.9,45,0.00,,,0.00,WUHU216HW,2014-01-02 18:29:00,
2014-01-02 12:34:00,20.3,2.3,30.43,WNW,293,2.9,2.9,45,0.00,,,0.00,WUHU216HW,2014-01-02 18:34:00,
2014-01-02 12:59:00,17.6,0.3,30.42,North,0,2.0,2.0,46,0.00,,,0.00,WUHU216HW,2014-01-02 18:59:00,
2014-01-02 13:04:00,17.6,0.3,30.42,North,0,2.0,2.0,46,0.00,,,0.00,WUHU216HW,2014-01-02 19:04:00,
2014-01-02 13:29:00,18.4,0.9,30.42,NW,315,4.3,4.3,46,0.00,,,0.00,WUHU216HW,2014-01-02 19:29:00,
2014-01-02 13:30:00,18.4,0.9,30.42,NW,315,4.3,4.3,46,0.00,,,0.00,WUHU216HW,2014-01-02 19:30:00,
2014-01-02 13:59:00,17.5,-0.4,30.41,North,0,0.0,0.0,45,0.00,,,0.00,WUHU216HW,2014-01-02 19:59:00,
2014-01-02 14:04:00,17.5,-0.4,30.41,North,0,0.0,0.0,45,0.00,,,0.00,WUHU216HW,2014-01-02 20:04:00,
2014-01-02 14:29:00,19.6,1.6,30.42,North,0,0.0,0.0,45,0.00,,,0.00,WUHU216HW,2014-01-02 20:29:00,
2014-01-02 14:30:00,19.6,1.6,30.42,North,0,0.0,0.0,45,0.00,,,0.00,WUHU216HW,2014-01-02 20:30:00,
2014-01-02 14:34:00,19.6,1.6,30.42,North,0,0.0,0.0,45,0.00,,,0.00,WUHU216HW,2014-01-02 20:34:00,
2014-01-02 15:00:00,22.3,3.2,30.42,North,0,0.0,0.0,43,0.00,,,0.00,WUHU216HW,2014-01-02 21:00:00,
2014-01-02 15:05:00,22.3,3.2,30.42,North,0,0.0,0.0,43,0.00,,,0.00,WUHU216HW,2014-01-02 21:05:00,
2014-01-02 15:29:00,24.8,2.2,30.44,North,0,0.0,0.0,37,0.00,,,0.00,WUHU216HW,2014-01-02 21:29:00,
2014-01-02 15:34:00,24.1,1.4,30.44,North,0,0.0,0.0,37,0.00,,,0.00,WUHU216HW,2014-01-02 21:34:00,
2014-01-02 15:39:00,24.5,3.1,30.44,North,0,0.0,0.0,39,0.00,,,0.00,WUHU216HW,2014-01-02 21:39:00,
2014-01-02 15:50:00,25.4,3.3,30.44,North,0,0.0,0.0,38,0.00,,,0.00,WUHU216HW,2014-01-02 21:50:00,
2014-01-02 15:55:00,25.7,1.6,30.44,North,0,0.0,0.0,35,0.00,,,0.00,WUHU216HW,2014-01-02 21:55:00,
2014-01-02 16:00:00,25.6,2.8,30.44,North,0,0.0,0.0,37,0.00,,,0.00,WUHU216HW,2014-01-02 22:00:00,
2014-01-02 16:05:00,26.1,3.3,30.44,North,0,0.0,0.0,37,0.00,,,0.00,WUHU216HW,2014-01-02 22:05:00,
2014-01-02 16:10:00,26.5,3.5,30.44,North,0,0.0,0.0,37,0.00,,,0.00,WUHU216HW,2014-01-02 22:10:00,
2014-01-02 16:15:00,25.7,2.3,30.44,North,0,0.0,0.0,36,0.00,,,0.00,WUHU216HW,2014-01-02 22:15:00,
2014-01-02 16:20:00,24.8,2.7,30.44,North,0,0.0,0.0,38,0.00,,,0.00,WUHU216HW,2014-01-02 22:20:00,
2014-01-02 16:25:00,24.7,3.2,30.44,North,0,0.0,0.0,39,0.00,,,0.00,WUHU216HW,2014-01-02 22:25:00,
2014-01-02 16:30:00,23.9,2.5,30.44,North,0,0.0,0.0,39,0.00,,,0.00,WUHU216HW,2014-01-02 22:30:00,
2014-01-02 16:35:00,23.0,2.3,30.44,North,0,0.0,0.0,40,0.00,,,0.00,WUHU216HW,2014-01-02 22:35:00,
2014-01-02 16:40:00,21.8,1.7,30.44,North,0,0.0,0.0,41,0.00,,,0.00,WUHU216HW,2014-01-02 22:40:00,
2014-01-02 16:45:00,21.2,1.2,30.44,North,0,0.0,0.0,41,0.00,,,0.00,WUHU216HW,2014-01-02 22:45:00,
2014-01-02 16:50:00,21.2,1.2,30.44,North,0,0.0,0.0,41,0.00,,,0.00,WUHU216HW,2014-01-02 22:50:00,
2014-01-02 16:59:00,17.8,-1.4,30.45,North,0,0.0,0.0,42,0.00,,,0.00,WUHU216HW,2014-01-02 22:59:00,
2014-01-02 17:00:00,17.8,-1.4,30.45,North,0,0.0,0.0,42,0.00,,,0.00,WUHU216HW,2014-01-02 23:00:00,
2014-01-02 17:04:00,17.8,-1.4,30.45,North,0,0.0,0.0,42,0.00,,,0.00,WUHU216HW,2014-01-02 23:04:00,
2014-01-02 17:30:00,13.9,-3.3,30.45,North,0,0.0,0.0,46,0.00,,,0.00,WUHU216HW,2014-01-02 23:30:00,
2014-01-02 17:35:00,13.9,-3.3,30.45,North,0,0.0,0.0,46,0.00,,,0.00,WUHU216HW,2014-01-02 23:35:00,
2014-01-02 17:59:00,10.3,-4.7,30.46,North,0,0.0,0.0,50,0.00,,,0.00,WUHU216HW,2014-01-02 23:59:00,
2014-01-02 18:00:00,10.3,-4.7,30.46,North,0,0.0,0.0,50,0.00,,,0.00,WUHU216HW,2014-01-03 00:00:00,
2014-01-02 18:04:00,10.3,-4.7,30.46,North,0,0.0,0.0,50,0.00,,,0.00,WUHU216HW,2014-01-03 00:04:00,
2014-01-02 18:29:00,9.5,-5.0,30.46,North,0,0.0,0.0,51,0.00,,,0.00,WUHU216HW,2014-01-03 00:29:00,
2014-01-02 18:34:00,9.4,-4.9,30.46,North,0,0.0,0.0,52,0.00,,,0.00,WUHU216HW,2014-01-03 00:34:00,
2014-01-02 18:39:00,9.2,-5.0,30.47,North,0,0.0,0.0,52,0.00,,,0.00,WUHU216HW,2014-01-03 00:39:00,
2014-01-02 18:44:00,9.0,-5.2,30.47,North,0,0.0,0.0,52,0.00,,,0.00,WUHU216HW,2014-01-03 00:44:00,
2014-01-02 18:49:00,8.6,-5.6,30.47,North,0,0.0,0.0,52,0.00,,,0.00,WUHU216HW,2014-01-03 00:49:00,
2014-01-02 18:54:00,8.3,-5.8,30.47,North,0,0.0,0.0,52,0.00,,,0.00,WUHU216HW,2014-01-03 00:54:00,
2014-01-02 18:59:00,8.3,-5.5,30.47,North,0,0.0,0.0,53,0.00,,,0.00,WUHU216HW,2014-01-03 00:59:00,
2014-01-02 19:04:00,7.9,-5.4,30.46,NNE,23,2.0,2.0,54,0.00,,,0.00,WUHU216HW,2014-01-03 01:04:00,
2014-01-02 19:09:00,7.9,-5.4,30.46,NNE,23,3.4,3.4,54,0.00,,,0.00,WUHU216HW,2014-01-03 01:09:00,
2014-01-02 19:14:00,7.7,-5.6,30.47,North,0,0.2,3.4,54,0.00,,,0.00,WUHU216HW,2014-01-03 01:14:00,
2014-01-02 19:19:00,7.2,-5.7,30.47,WNW,293,0.9,0.9,55,0.00,,,0.00,WUHU216HW,2014-01-03 01:19:00,
2014-01-02 19:24:00,6.8,-6.0,30.47,North,0,0.4,1.1,55,0.00,,,0.00,WUHU216HW,2014-01-03 01:24:00,
2014-01-02 19:29:00,6.5,-6.4,30.47,West,270,0.2,1.1,55,0.00,,,0.00,WUHU216HW,2014-01-03 01:29:00,
2014-01-02 19:34:00,5.2,-6.8,30.47,WNW,293,0.0,1.1,57,0.00,,,0.00,WUHU216HW,2014-01-03 01:34:00,
2014-01-02 19:39:00,5.0,-7.0,30.47,WNW,293,0.0,1.1,57,0.00,,,0.00,WUHU216HW,2014-01-03 01:39:00,
2014-01-02 19:44:00,5.2,-6.8,30.47,WSW,248,0.0,0.2,57,0.00,,,0.00,WUHU216HW,2014-01-03 01:44:00,
2014-01-02 19:49:00,5.2,-6.5,30.47,NNE,23,0.9,0.9,58,0.00,,,0.00,WUHU216HW,2014-01-03 01:49:00,
2014-01-02 19:54:00,4.9,-6.5,30.47,WNW,293,1.1,1.8,59,0.00,,,0.00,WUHU216HW,2014-01-03 01:54:00,
2014-01-02 19:59:00,4.9,-6.5,30.47,North,0,0.0,1.8,59,0.00,,,0.00,WUHU216HW,2014-01-03 01:59:00,
2014-01-02 20:04:00,4.7,-7.0,30.47,North,0,0.2,1.1,58,0.00,,,0.00,WUHU216HW,2014-01-03 02:04:00,
2014-01-02 20:09:00,4.0,-7.6,30.47,SSW,203,0.0,0.2,58,0.00,,,0.00,WUHU216HW,2014-01-03 02:09:00,
2014-01-02 20:14:00,3.6,-8.4,30.47,SSW,203,0.0,0.0,57,0.00,,,0.00,WUHU216HW,2014-01-03 02:14:00,
2014-01-02 20:19:00,3.4,-7.7,30.48,West,270,2.5,2.5,59,0.00,,,0.00,WUHU216HW,2014-01-03 02:19:00,
2014-01-02 20:24:00,2.2,-8.6,30.48,WNW,293,2.0,2.5,60,0.00,,,0.00,WUHU216HW,2014-01-03 02:24:00,
2014-01-02 20:29:00,1.8,-8.6,30.48,North,0,0.0,2.5,61,0.00,,,0.00,WUHU216HW,2014-01-03 02:29:00,
2014-01-02 20:34:00,1.8,-8.6,30.48,North,0,0.0,1.8,61,0.00,,,0.00,WUHU216HW,2014-01-03 02:34:00,
2014-01-02 20:59:00,2.3,-8.5,30.47,NW,315,0.4,0.4,60,0.00,,,0.00,WUHU216HW,2014-01-03 02:59:00,
2014-01-02 21:07:00,2.3,-8.1,30.47,NW,315,0.4,0.4,61,0.00,,,0.00,WUHU216HW,2014-01-03 03:07:00,
2014-01-02 21:30:00,1.1,-8.7,30.47,NNE,23,0.0,0.0,63,0.00,,,0.00,WUHU216HW,2014-01-03 03:30:00,
2014-01-02 21:35:00,1.1,-8.7,30.47,NNE,23,0.0,0.0,63,0.00,,,0.00,WUHU216HW,2014-01-03 03:35:00,
2014-01-02 22:00:00,0.7,-9.1,30.47,SSW,203,1.1,1.1,63,0.00,,,0.00,WUHU216HW,2014-01-03 04:00:00,
2014-01-02 22:05:00,0.7,-9.1,30.47,SSW,203,1.1,1.1,63,0.00,,,0.00,WUHU216HW,2014-01-03 04:05:00,
2014-01-02 22:29:00,0.2,-9.3,30.47,SSE,158,0.0,0.0,64,0.00,,,0.00,WUHU216HW,2014-01-03 04:29:00,
2014-01-02 22:34:00,-0.2,-9.9,30.47,South,180,0.0,0.2,63,0.00,,,0.00,WUHU216HW,2014-01-03 04:34:00,
2014-01-02 22:39:00,-0.5,-10.3,30.47,South,180,0.0,0.2,63,0.00,,,0.00,WUHU216HW,2014-01-03 04:39:00,
2014-01-02 22:47:00,-0.7,-10.4,30.47,South,180,0.0,0.2,63,0.00,,,0.00,WUHU216HW,2014-01-03 04:47:00,
2014-01-02 22:52:00,-1.3,-10.6,30.47,NE,45,0.0,1.3,64,0.00,,,0.00,WUHU216HW,2014-01-03 04:52:00,
2014-01-02 22:57:00,-1.1,-10.4,30.46,ENE,68,0.0,0.4,64,0.00,,,0.00,WUHU216HW,2014-01-03 04:57:00,
2014-01-02 23:01:00,-0.9,-10.0,30.46,East,90,0.7,0.7,65,0.00,,,0.00,WUHU216HW,2014-01-03 05:01:00,
2014-01-02 23:02:00,-0.9,-10.0,30.46,NNE,23,0.4,0.7,65,0.00,,,0.00,WUHU216HW,2014-01-03 05:02:00,
2014-01-02 23:07:00,-0.7,-9.8,30.46,NNE,23,0.0,0.7,65,0.00,,,0.00,WUHU216HW,2014-01-03 05:07:00,
2014-01-02 23:12:00,-0.5,-9.9,30.46,NNE,23,0.0,0.2,64,0.00,,,0.00,WUHU216HW,2014-01-03 05:12:00,
2014-01-02 23:17:00,-0.5,-9.9,30.46,NNE,23,0.0,0.2,64,0.00,,,0.00,WUHU216HW,2014-01-03 05:17:00,
2014-01-02 23:22:00,-0.7,-9.8,30.46,WNW,293,0.0,0.2,65,0.00,,,0.00,WUHU216HW,2014-01-03 05:22:00,
2014-01-02 23:27:00,-1.1,-10.4,30.46,NNE,23,0.0,0.2,64,0.00,,,0.00,WUHU216HW,2014-01-03 05:27:00,
2014-01-02 23:32:00,-1.1,-10.2,30.45,NE,45,0.9,1.1,65,0.00,,,0.00,WUHU216HW,2014-01-03 05:32:00,
2014-01-02 23:37:00,-1.1,-10.2,30.45,NNE,23,0.0,1.1,65,0.00,,,0.00,WUHU216HW,2014-01-03 05:37:00,
2014-01-02 23:42:00,-0.9,-10.0,30.45,NNE,23,0.0,0.2,65,0.00,,,0.00,WUHU216HW,2014-01-03 05:42:00,
2014-01-02 23:49:00,-0.9,-10.0,30.45,NNE,23,0.0,0.2,65,0.00,,,0.00,WUHU216HW,2014-01-03 05:49:00,
2014-01-02 23:54:00,-2.2,-10.8,30.45,ENE,68,0.4,0.4,66,0.00,,,0.00,WUHU216HW,2014-01-03 05:54:00,
2014-01-02 23:59:00,-2.3,-10.7,30.44,ENE,68,0.0,0.4,67,0.00,,,0.00,WUHU216HW,2014-01-03 05:59:00,